TIME,DELAY(SENSOR),PRES,OXYGEN,RAWTEMP,T(OPTODE),TCPHASE,FLUOR,BETA(BETA700),BETA(BETA412),BETA(BETA440),CDOM,C(CSC),ED(ED411.90),ED(ED443.80),ED(ED489.40),ED(ED554.70),LU(LU412.20),LU(LU443.80),LU(LU489.40),LU(LU555.00),COMP,TILTX,TILTY,CHECK
1338327908,5804,877.0900268554688000,183.8591003417968800,479.7077026367187500,8.5139913558959960,39.1516990661621100,51,110,102,80,75,15441,2147445293,2147797677,2147578825,2147825197,2147308918,2147450651,2147756086,2148274441,161,6,14,54202
1338331504,5805,962.0000000000000000,224.7362976074218800,538.1890258789062000,6.6795849800109860,37.7060890197753900,51,106,103,78,77,15400,2147434642,2147799899,2147587602,2147830948,2147306413,2147444562,2147763574,2148283748,164,6,14,30470
1338335104,5806,12.1000003814697270,233.5859985351562500,548.4116821289062000,6.3563728332519530,37.4158515930175800,51,105,102,80,75,15403,2147434697,2147799131,2147587410,2147834112,2147303268,2147438893,2147765714,2148280996,631,6,15,52517
1338338704,5804,13.1999998092651370,234.2872009277343800,548.6245117187500000,6.3496398925781250,37.3834381103515600,52,106,103,79,75,15400,2147436736,2147803227,2147585910,2147834998,2147305472,2147446957,2147771008,2148281993,3139,6,15,3342
1338342304,5804,1046.0000000000000000,233.8556060791015600,548.9564208984375000,6.3391299247741700,37.4121704101562500,51,105,103,79,77,15396,2147430628,2147804242,2147589659,2147835264,2147306514,2147446272,2147767725,2148278464,3264,6,15,51264
1338345904,5804,14.1999998092651370,236.4700927734375000,549.6126708984375000,6.3183479309082030,37.2871818542480500,51,105,104,79,76,15397,2147433380,2147805330,2147586313,2147834258,2147305865,2147449142,2147768347,2148283126,757,6,15,32056
1338349504,5806,10.0000000000000000,235.9008941650390600,549.2722778320312000,6.3291277885437010,37.3110885620117200,51,104,104,79,76,15401,2147433929,2147798774,2147586560,2147833819,2147306715,2147447213,2147768146,2148283401,33,6,14,62732
1338353104,5806,1305.0000000000000000,235.9804992675781200,549.5520019531250000,6.3202710151672360,37.3116493225097660,51,106,105,78,77,15400,2147432384,2147801600,2147587053,2147835766,2147306505,2147446500,2147767542,2148281874,100,6,15,1051
1338356704,5802,1308.0000000000000000,235.7118988037109400,550.3489990234375000,6.2950310707092285,37.3401908874511700,51,103,103,79,76,15399,2147429430,2147799753,2147584758,2147833892,2147305572,2147442861,2147769216,2148281636,185,6,15,51833
1338360304,5805,10.8999996185302730,230.5706024169922000,546.3112792968750000,6.4228482246398930,37.5380210876464840,51,108,104,79,76,15397,2147433910,2147798802,2147583716,2147834285,2147308461,2147447222,2147765458,2148281892,584,6,15,1224
1338363904,5803,1099.0000000000000000,232.5368957519531200,546.2188110351562000,6.4257769584655760,37.4313087463378900,51,106,103,78,76,15393,2147433334,2147802834,2147586240,2147836169,2147308196,2147448649,2147768612,2148280146,690,6,15,53402
1338367504,5805,10.3000001907348630,231.8112945556640600,545.5573120117188000,6.4467048645019530,37.4583396911621100,51,105,103,79,77,15392,2147431707,2147799597,2147586880,2147833782,2147302016,2147445385,2147769206,2148282770,402,6,15,52070
1338371104,5804,11.6999998092651370,229.5874938964843800,544.4022827148438000,6.4832382202148440,37.5554313659668000,51,105,103,78,75,15390,2147430774,2147800000,2147584493,2147832420,2147303917,2147449078,2147766436,2148283428,504,6,14,24629
1338374704,5801,1101.0000000000000000,229.7951965332031200,544.2247924804688000,6.4888501167297360,37.5415496826171900,51,107,105,78,77,15388,2147435977,2147801490,2147587501,2147836388,2147304201,2147444077,2147764992,2148286198,3594,6,14,36834
1338378304,5807,12.5000000000000000,229.5691070556640600,544.0753784179688000,6.4935741424560550,37.5505905151367200,51,107,103,78,77,15388,2147433737,2147805174,2147585792,2147835401,2147306102,2147443044,2147767085,2148284086,15,6,14,40243
1338381904,5801,10.5000000000000000,228.8881988525390600,543.5457153320312000,6.5103230476379395,37.5780487060546900,51,102,102,79,76,15384,2147433234,2147802002,2147588361,2147833371,2147307858,2147445056,2147765851,2148280091,3499,6,15,15330
1338385504,5804,1190.0000000000000000,229.6078033447265600,542.1674194335938000,6.5538959503173830,37.5143089294433600,51,109,103,79,77,15380,2147435364,2147799140,2147587611,2147831990,2147304914,2147445513,2147767899,2148282624,3370,6,15,29657
1338389104,5805,11.5000000000000000,228.7404022216797000,543.8732299804688000,6.4999690055847170,37.5917892456054700,50,106,103,79,77,15381,2147435456,2147802368,2147586788,2147833929,2147303085,2147447424,2147771757,2148283035,110,6,14,44717
1338392704,5805,1219.0000000000000000,229.1009979248047000,543.4644165039062000,6.5128960609436035,37.5646400451660160,52,107,104,79,77,15380,2147434678,2147803556,2147587885,2147835145,2147305718,2147448292,2147768795,2148279616,116,6,15,36681
1338396304,5807,1187.0000000000000000,228.7032928466797000,543.3134155273438000,6.5176677703857420,37.5832290649414060,51,106,106,79,76,15376,2147431360,2147801398,2147588096,2147835584,2147305142,2147446500,2147765403,2148281088,379,6,15,29009
1338399904,5804,1189.0000000000000000,230.6257934570312500,545.6359863281250000,6.4442138671875000,37.5229911804199200,51,106,103,80,77,15382,2147432566,2147801435,2147588397,2147834532,2147305627,2147450889,2147771748,2148281846,3418,6,15,58755
1338403504,5804,11.3999996185302730,230.1974945068359400,545.7963867187500000,6.4391398429870605,37.5484199523925800,51,107,103,79,76,15380,2147435254,2147801645,2147589833,2147833846,2147306404,2147445257,2147767323,2148281728,3587,6,15,64613
1338407104,5804,11.3999996185302730,229.2794952392578000,546.5490112304688000,6.4153270721435550,37.6112403869628900,52,105,103,78,76,15333,2147433545,2147799323,2147590016,2147834313,2147304338,2147445467,2147766198,2148283803,3251,6,15,9757
1338410704,5804,11.5000000000000000,228.4880981445312500,545.6027221679688000,6.4452691078186035,37.6362915039062500,51,107,103,79,77,15377,2147434889,2147803273,2147588077,2147834660,2147307254,2147444982,2147767570,2148280822,3485,6,15,24946
1338414304,5804,11.5000000000000000,229.5110015869140600,545.7645874023438000,6.4401450157165530,37.5847206115722660,52,107,104,79,77,15376,2147436397,2147803227,2147588516,2147832950,2147307236,2147446336,2147763922,2148280832,339,6,15,19298
1338417904,5806,1094.0000000000000000,227.6338043212890600,545.8823242187500000,6.4364237785339355,37.6873207092285160,52,106,103,79,77,15374,2147438610,2147800109,2147588324,2147833901,2147303232,2147446262,2147770358,2148281910,3,6,14,2454
1338421504,5805,1032.0000000000000000,228.0809936523437500,545.9420776367188000,6.4345278739929200,37.6641883850097660,51,105,102,78,76,15237,2147435300,2147798710,2147589174,2147833865,2147305526,2147446089,2147764461,2148281142,109,6,15,44733
1338425104,5800,12.6000003814697270,227.2760925292968800,544.1422119140625000,6.4914631843566895,37.6752204895019500,51,105,102,79,76,15233,2147436096,2147800777,2147587465,2147832960,2147306112,2147447085,2147766290,2148278774,528,6,15,57791
1338428704,5804,12.8000001907348630,227.0482940673828000,543.5494995117188000,6.5102038383483890,37.6768493652343750,51,105,102,78,77,15140,2147438336,2147800356,2147588013,2147835126,2147303707,2147448713,2147767222,2148280493,433,6,15,30404
1338432304,5804,12.6000003814697270,225.7498931884765600,544.3897705078125000,6.4836311340332030,37.7626686096191400,50,105,104,79,76,15144,2147435264,2147797915,2147586624,2147834624,2147307840,2147445888,2147767862,2148279451,394,6,15,59574
1338435904,5805,12.6000003814697270,228.5348052978515600,544.2416992187500000,6.4883160591125490,37.6091804504394500,51,107,105,78,76,15133,2147430939,2147800868,2147588653,2147835593,2147304466,2147444050,2147770048,2148281014,3429,6,15,35353
1338439504,5804,12.8000001907348630,227.6730957031250000,544.4926757812500000,6.4803771972656250,37.6600608825683600,51,105,104,79,77,15126,2147432969,2147799350,2147585462,2147838226,2147305508,2147448448,2147768987,2148282980,3448,6,15,60894
1338443104,5803,12.1999998092651370,229.4544982910156200,544.3947143554688000,6.4834771156311035,37.5625114440918000,51,110,104,78,77,15114,2147432667,2147800923,2147586678,2147838326,2147306102,2147444105,2147769856,2148280457,219,6,15,2353
1338446704,5803,11.6000003814697270,233.1891937255859400,548.1362304687500000,6.3650970458984375,37.4319801330566400,51,106,104,78,76,15118,2147434870,2147801920,2147585124,2147837906,2147306843,2147445421,2147768100,2148282011,3059,6,15,153
1338450304,5802,1176.0000000000000000,235.2032012939453000,548.7310180664062000,6.3462681770324710,37.3372001647949200,52,109,103,79,76,15115,2147434038,2147799104,2147583872,2147836918,2147307008,2147447286,2147765613,2148281517,2477,6,15,52535
1338453904,5802,11.6999998092651370,235.1208038330078000,548.5277099609375000,6.3527030944824220,37.3379211425781250,51,109,104,78,77,15107,2147433837,2147799853,2147589275,2147833426,2147305965,2147443026,2147770944,2148280347,2972,6,15,36380
1338457504,5803,1225.0000000000000000,234.6788024902343800,549.3474121093750000,6.3267498016357420,37.3754806518554700,50,107,103,80,75,15114,2147434505,2147802377,2147585965,2147835657,2147305664,2147446125,2147770715,2148280429,3572,6,15,58224
1338461104,5801,1208.0000000000000000,233.8421020507812500,549.2952880859375000,6.3284001350402830,37.4187889099121100,50,109,103,78,76,15095,2147431808,2147803218,2147590884,2147837778,2147308608,2147446244,2147766107,2148281956,3316,6,15,14393
1338464704,5803,1232.0000000000000000,234.2772064208984400,548.0971069335938000,6.3663330078125000,37.3743591308593750,51,108,102,78,76,15097,2147435245,2147803849,2147586477,2147833444,2147308781,2147444050,2147768621,2148281627,3501,6,15,36019
1338468304,5806,12.3999996185302730,232.8003997802734400,547.0626831054688000,6.3990731239318850,37.4327507019043000,51,105,103,79,76,15097,2147435163,2147803291,2147589686,2147836553,2147304365,2147442322,2147767744,2148281398,362,6,15,28054
1338471904,5802,12.3000001907348630,231.0034942626953000,546.2597045898438000,6.4244818687438965,37.5139808654785160,51,104,103,78,77,15090,2147435273,2147803062,2147586761,2147835547,2147307712,2147447680,2147765961,2148286208,3576,6,15,45494
1338472555,5807,12.8000001907348630,231.0198059082031200,546.0067138671875000,6.4324860572814940,37.5086288452148440,51,107,104,79,76,15097,2147435346,2147802066,2147587922,2147832045,2147305874,2147450422,2147767625,2148281371,279,6,15,55560
